Jennings, LA

4:33 AM CST on December 16, 2017 (GMT -0600)
Jennings

Weather History for K3R7 - November, 2013

Change the Weather History Date:

Monday, November 25, 2013

  Actual Average (KCWF) Record (KCWF)
Temperature  
Mean Temperature 39 °F -  
Max Temperature 41 °F 67 °F 80 °F (2010)
Min Temperature 37 °F 51 °F 35 °F (2003)
Degree Days  
Heating Degree Days 26    
Moisture  
Dew Point 36 °F    
Average Humidity 86    
Maximum Humidity 99    
Minimum Humidity 65    
Precipitation  
Precipitation 1.23 in - - ()
Sea Level Pressure  
Sea Level Pressure 30.11 in    
Wind  
Wind Speed 11 mph (NNE)    
Max Wind Speed 17 mph    
Max Gust Speed 24 mph    
Visibility 8 miles    
Events Rain , Thunderstorm    
Averages and records for this station are not official NWS values.
T = Trace of Precipitation, MM = Missing Value Source: NWS Daily Summary

Daily Weather History Graph

Daily Weather History Graph

Search for Another Location

Airport or City:

Trip Planner

Search our weather history database for the weather conditions in past years. The results will help you decide how hot, cold, wet, or windy it might be!

Date:

Astronomy

Nov. 25, 2013 Rise Set
Actual Time 6:44 AM CST 5:10 PM CST
Civil Twilight 6:18 AM CST 5:36 PM CST
Nautical Twilight 5:49 AM CST 6:05 PM CST
Astronomical Twilight 5:20 AM CST 6:34 PM CST
Moon No Moon Rise 12:18 PM CST (11/25)
Length of Visible Light 11h 17m
Length of Day
10h 25m
Waning Gibbous, 51% of the Moon is Illuminated
Nov 25
Waning Gibbous
Nov 25
Last Quarter
Dec 2
New
Dec 9
First Quarter
Dec 17
Full

Hourly Weather History & Observations

Time (CST) Temp. Windchill Dew Point Humidity Pressure Visibility Wind Dir Wind Speed Gust Speed Precip Events Conditions
12:15 AM 40.3 °F 33.9 °F 30.6 °F 68% 30.31 in 10.0 mi NE 10.4 mph - N/A   Overcast
12:35 AM 40.5 °F 34.1 °F 30.9 °F 69% 30.31 in 10.0 mi NE 10.4 mph - N/A   Overcast
12:55 AM 40.6 °F 33.4 °F 30.6 °F 67% 30.29 in 10.0 mi NE 12.7 mph - N/A   Overcast
1:15 AM 41.0 °F 35.2 °F 30.6 °F 66% 30.28 in 10.0 mi NE 9.2 mph - N/A   Overcast
1:35 AM 41.0 °F 34.7 °F 30.4 °F 66% 30.27 in 10.0 mi NE 10.4 mph - N/A   Overcast
1:55 AM 41.0 °F 34.3 °F 30.9 °F 67% 30.26 in 10.0 mi NE 11.5 mph - N/A   Overcast
2:15 AM 40.6 °F 34.8 °F 30.9 °F 68% 30.26 in 10.0 mi NE 9.2 mph - N/A   Overcast
2:35 AM 40.6 °F 33.8 °F 30.9 °F 68% 30.24 in 10.0 mi NE 11.5 mph - N/A   Overcast
2:55 AM 41.0 °F 34.7 °F 31.5 °F 69% 30.23 in 10.0 mi ENE 10.4 mph - N/A   Overcast
3:15 AM 41.0 °F 35.2 °F 30.4 °F 66% 30.23 in 10.0 mi ENE 9.2 mph - N/A   Overcast
3:35 AM 41.0 °F 35.2 °F 30.2 °F 65% 30.23 in 10.0 mi NE 9.2 mph - N/A   Overcast
3:55 AM 41.2 °F 36.6 °F 30.6 °F 66% 30.23 in 10.0 mi NE 6.9 mph - N/A   Overcast
4:15 AM 41.2 °F 35.5 °F 30.4 °F 65% 30.23 in 10.0 mi NE 9.2 mph - N/A   Overcast
4:35 AM 41.2 °F 36.0 °F 30.2 °F 65% 30.22 in 10.0 mi NE 8.1 mph - N/A   Overcast
4:55 AM 41.4 °F 35.2 °F 30.2 °F 65% 30.22 in 10.0 mi NNE 10.4 mph - N/A   Overcast
5:15 AM 41.2 °F 35.5 °F 30.6 °F 66% 30.21 in 10.0 mi NE 9.2 mph - N/A   Overcast
5:35 AM 41.2 °F 36.0 °F 30.4 °F 65% 30.20 in 10.0 mi NE 8.1 mph - N/A   Overcast
5:55 AM 41.4 °F 36.8 °F 30.4 °F 65% 30.20 in 10.0 mi NNE 6.9 mph - N/A   Overcast
6:15 AM 41.2 °F 36.0 °F 31.6 °F 69% 30.20 in 10.0 mi NNE 8.1 mph - N/A   Overcast
6:35 AM 40.6 °F 34.3 °F 32.7 °F 73% 30.20 in 10.0 mi North 10.4 mph - N/A   Overcast
6:55 AM 40.3 °F 34.4 °F 32.7 °F 74% 30.20 in 10.0 mi NNE 9.2 mph - N/A   Overcast
7:15 AM 40.6 °F 33.4 °F 32.0 °F 71% 30.20 in 10.0 mi NNE 12.7 mph - N/A   Overcast
7:35 AM 40.5 °F 33.6 °F 32.4 °F 73% 30.20 in 10.0 mi NNE 11.5 mph - N/A   Overcast
7:55 AM 40.3 °F 33.4 °F 32.9 °F 75% 30.20 in 10.0 mi NNE 11.5 mph - N/A   Overcast
8:15 AM 40.1 °F 32.7 °F 32.9 °F 75% 30.19 in 10.0 mi NNE 12.7 mph - N/A   Overcast
8:35 AM 40.1 °F 32.7 °F 33.8 °F 78% 30.20 in 10.0 mi NNE 12.7 mph - N/A   Overcast
8:55 AM 39.9 °F 32.5 °F 34.0 °F 79% 30.20 in 10.0 mi North 12.7 mph 17.3 mph N/A   Overcast
9:15 AM 40.3 °F 33.9 °F 34.3 °F 79% 30.20 in 10.0 mi North 10.4 mph - N/A   Overcast
9:35 AM 40.1 °F 33.2 °F 34.7 °F 81% 30.19 in 10.0 mi NNE 11.5 mph 17.3 mph N/A   Overcast
9:55 AM 39.7 °F 32.3 °F 35.1 °F 83% 30.18 in 10.0 mi NE 12.7 mph - N/A   Overcast
10:15 AM 39.6 °F 30.6 °F 35.2 °F 85% 30.17 in 10.0 mi NE 17.3 mph - N/A   Overcast
10:35 AM 39.0 °F 31.0 °F 35.6 °F 88% 30.16 in 10.0 mi NNE 13.8 mph - N/A   Overcast
10:55 AM 38.5 °F 29.9 °F 36.5 °F 93% 30.15 in 10.0 mi NNE 15.0 mph - N/A Rain Light Rain
11:15 AM 38.5 °F 31.6 °F 37.2 °F 95% 30.15 in 7.0 mi NNE 10.4 mph - 0.03 in Rain Rain
11:35 AM 38.3 °F 31.4 °F 37.4 °F 97% 30.14 in 2.5 mi NNE 10.4 mph - 0.10 in Rain Heavy Rain
11:55 AM 38.3 °F 30.9 °F 37.6 °F 97% 30.14 in 4.0 mi North 11.5 mph - 0.15 in Rain Rain
12:15 PM 38.5 °F 31.1 °F 37.8 °F 97% 30.10 in 4.0 mi North 11.5 mph 17.3 mph 0.02 in Rain Light Rain
12:35 PM 38.3 °F 30.5 °F 37.4 °F 97% 30.08 in 10.0 mi NNE 12.7 mph - 0.02 in Rain Light Rain
12:55 PM 37.8 °F 30.2 °F 36.9 °F 97% 30.08 in 10.0 mi NNE 11.5 mph 17.3 mph 0.03 in Rain Rain
1:15 PM 37.8 °F 29.4 °F 37.0 °F 97% 30.07 in 1.2 mi NNE 13.8 mph 20.7 mph 0.07 in Rain Light Rain
1:35 PM 37.6 °F 29.6 °F 36.9 °F 97% 30.06 in 4.0 mi NNE 12.7 mph 16.1 mph 0.11 in Rain Heavy Rain
1:55 PM 37.4 °F 30.3 °F 36.5 °F 97% 30.04 in 4.0 mi NNE 10.4 mph - 0.18 in Rain Rain
2:15 PM 37.6 °F 29.6 °F 37.0 °F 98% 30.04 in 7.0 mi NNE 12.7 mph 16.1 mph 0.01 in Rain Rain
2:35 PM 37.4 °F 29.8 °F 36.7 °F 97% 30.05 in 4.0 mi North 11.5 mph 20.7 mph 0.04 in Rain Rain
2:55 PM 37.4 °F 31.4 °F 36.7 °F 97% 30.05 in 4.0 mi North 8.1 mph 11.5 mph 0.10 in Rain Rain
3:15 PM 37.4 °F 29.8 °F 36.9 °F 98% 30.04 in 10.0 mi North 11.5 mph - N/A Rain Light Rain
3:35 PM 37.6 °F 33.1 °F 37.0 °F 98% 30.03 in 10.0 mi NNE 5.8 mph - N/A Rain Light Rain
3:55 PM 37.6 °F 31.0 °F 37.0 °F 98% 30.04 in 7.0 mi North 9.2 mph - 0.01 in Rain Light Rain
4:15 PM 37.6 °F 29.6 °F 37.0 °F 98% 30.03 in 7.0 mi North 12.7 mph 16.1 mph 0.01 in Rain Light Rain
4:35 PM 37.6 °F 28.8 °F 36.9 °F 97% 30.02 in 7.0 mi North 15.0 mph - 0.01 in Rain Light Rain
4:55 PM 37.9 °F 28.9 °F 37.4 °F 98% 30.00 in 10.0 mi NE 16.1 mph 24.2 mph 0.01 in   Overcast
5:15 PM 39.0 °F 31.4 °F 37.9 °F 96% 30.00 in 10.0 mi NE 12.7 mph 19.6 mph N/A   Overcast
5:35 PM 39.6 °F 31.0 °F 38.5 °F 96% 29.99 in 10.0 mi NE 16.1 mph 20.7 mph N/A   Overcast
5:55 PM 39.7 °F 32.7 °F 39.2 °F 98% 29.99 in 10.0 mi NNE 11.5 mph - N/A   Overcast
6:15 PM 40.1 °F 33.6 °F 39.4 °F 97% 29.99 in 10.0 mi NNE 10.4 mph - N/A   Overcast
6:35 PM 40.1 °F 33.2 °F 39.6 °F 98% 29.99 in 10.0 mi NE 11.5 mph - N/A   Overcast
6:55 PM 40.3 °F 34.4 °F 39.7 °F 98% 29.99 in 10.0 mi NNE 9.2 mph 17.3 mph N/A   Overcast
7:15 PM 40.5 °F 33.6 °F 40.1 °F 99% 29.98 in 7.0 mi NNE 11.5 mph 18.4 mph N/A   Overcast
7:35 PM 41.0 °F 35.2 °F 40.3 °F 97% 29.99 in 10.0 mi North 9.2 mph 17.3 mph 0.01 in Rain Rain
7:55 PM 41.0 °F 34.3 °F 40.6 °F 99% 30.00 in 7.0 mi North 11.5 mph - 0.05 in Rain Light Rain
8:15 PM 40.3 °F 32.6 °F 39.9 °F 99% 29.99 in 10.0 mi North 13.8 mph 21.9 mph 0.01 in Rain Light Rain
8:35 PM 40.1 °F 32.0 °F 39.7 °F 99% 29.97 in 5.0 mi NNE 15.0 mph 19.6 mph 0.06 in   Unknown
8:55 PM 40.5 °F 33.6 °F 40.1 °F 99% 29.98 in 10.0 mi North 11.5 mph 18.4 mph 0.06 in   Overcast
9:15 PM 40.6 °F 34.3 °F 40.1 °F 98% 29.99 in 7.0 mi North 10.4 mph 17.3 mph 0.02 in Rain Rain
9:35 PM 40.5 °F 32.8 °F 40.1 °F 99% 30.03 in 4.0 mi NW 13.8 mph 18.4 mph 0.06 in Rain Rain
9:55 PM 40.1 °F 34.1 °F 39.7 °F 99% 30.00 in 3.0 mi North 9.2 mph - 0.15 in Rain Heavy Rain
10:15 PM 39.9 °F 32.1 °F 39.7 °F 99% 29.97 in 1.8 mi NE 13.8 mph - 0.17 in Rain Heavy Rain
10:35 PM 40.8 °F 35.0 °F 40.5 °F 99% 29.94 in 5.0 mi NNE 9.2 mph 16.1 mph 0.29 in Rain Light Rain
10:55 PM 40.6 °F 33.8 °F 40.1 °F 98% 29.97 in 5.0 mi North 11.5 mph - 0.33 in Rain , Thunderstorm Heavy Thunderstorms and Rain
11:15 PM 40.6 °F 33.4 °F 40.3 °F 99% 29.96 in 7.0 mi North 12.7 mph - 0.02 in Rain Rain
11:35 PM 40.3 °F 34.9 °F 40.1 °F 99% 29.99 in 4.0 mi NNW 8.1 mph - 0.08 in   Overcast
11:55 PM 40.1 °F 33.6 °F 39.7 °F 99% 29.97 in 5.0 mi North 10.4 mph - 0.16 in Rain Rain